NANOSATC-BR1

Last updated on Tue Jul 01 2025 00:03:44 GMT+0000 (Coordinated Universal Time)

1 40024U 14033Q 25181.55926141 .00008426 00000+0 40900-3 0 9996 2 40024 98.0903 180.9470 0003624 344.5093 15.6028 15.18756959600399
UTC large
Height (km)
Speed (km/s)
/
Latitude / Longitude
Inclination (degrees)
Orbital Period (minutes)
Azimuth
Elevation
Range (km)
Doppler Factor

Next 0 passes for location: London (51.5072 / 0.1276)

Sorry there are no passes over London.